| time (UTC) | temp F | wind direction | speed MPH | gust MPH | rain 1hr in | rain 24hr in | rain mn in | humidity % | barometer mb |
| 20260504110307 | 70 | 256 | 1.0 | 3.0 | 0.00 | 0.00 | 0.00 | 88 | 1011.0 |
| 20260504110206 | 70 | 256 | 1.0 | 3.0 | 0.00 | 0.00 | 0.00 | 88 | 1011.0 |
| 20260504100305 | 73 | 256 | 2.0 | 3.0 | 0.00 | 0.00 | 0.00 | 88 | 1011.0 |
| 20260504100204 | 73 | 256 | 2.0 | 3.0 | 0.00 | 0.00 | 0.00 | 88 | 1011.0 |
| 20260504080302 | 72 | 262 | 1.0 | 1.0 | 0.00 | 0.00 | 0.00 | 89 | 1011.0 |
| 20260504080201 | 72 | 262 | 1.0 | 1.0 | 0.00 | 0.00 | 0.00 | 89 | 1011.0 |
| 20260504070300 | 75 | 262 | 2.0 | 2.0 | 0.00 | 0.00 | 0.00 | 89 | 1012.0 |
| 20260504070159 | 75 | 262 | 2.0 | 2.0 | 0.00 | 0.00 | 0.00 | 89 | 1012.0 |
| 20260504060158 | 73 | 267 | 3.0 | 4.0 | 0.00 | 0.00 | 0.00 | 90 | 1012.0 |
| 20260504050257 | 72 | 271 | 4.0 | 5.0 | 0.00 | 0.00 | 0.00 | 90 | 1013.0 |
| 20260504050156 | 72 | 271 | 4.0 | 5.0 | 0.00 | 0.00 | 0.00 | 90 | 1013.0 |
| 20260504044256 | 73 | 271 | 4.0 | 6.0 | 0.01 | 0.00 | 0.00 | 90 | 1013.0 |
| 20260504044156 | 73 | 271 | 4.0 | 6.0 | 0.01 | 0.00 | 0.00 | 90 | 1013.0 |
| 20260504042256 | 71 | 269 | 4.0 | 5.0 | 0.00 | 0.00 | 0.00 | 89 | 1013.0 |
| 20260504042156 | 71 | 269 | 4.0 | 5.0 | 0.00 | 0.00 | 0.00 | 89 | 1013.0 |
| 20260504040255 | 72 | 269 | 4.0 | 5.0 | 0.02 | 0.00 | 0.00 | 89 | 1013.0 |
| 20260504040155 | 72 | 269 | 4.0 | 5.0 | 0.02 | 0.00 | 0.00 | 89 | 1013.0 |
| 20260504034255 | 73 | 269 | 4.0 | 5.0 | 0.02 | 0.00 | 0.00 | 89 | 1013.0 |
| 20260504034154 | 73 | 269 | 4.0 | 5.0 | 0.02 | 0.00 | 0.00 | 89 | 1013.0 |
| 20260504032254 | 71 | 259 | 4.0 | 5.0 | 0.04 | 0.00 | 0.00 | 89 | 1013.0 |
| 20260504030254 | 72 | 259 | 4.0 | 5.0 | 0.05 | 0.00 | 0.00 | 89 | 1013.0 |
| 20260504030154 | 72 | 259 | 4.0 | 5.0 | 0.05 | 0.00 | 0.00 | 89 | 1013.0 |
| 20260504024254 | 73 | 259 | 4.0 | 5.0 | 0.05 | 0.00 | 0.00 | 89 | 1013.0 |
| 20260504024153 | 73 | 259 | 4.0 | 5.0 | 0.05 | 0.00 | 0.00 | 89 | 1013.0 |
| 20260504022253 | 71 | 257 | 3.0 | 5.0 | 0.06 | 0.00 | 0.00 | 89 | 1012.0 |
| 20260504022153 | 71 | 257 | 3.0 | 5.0 | 0.06 | 0.00 | 0.00 | 89 | 1012.0 |
| 20260504020252 | 72 | 257 | 3.0 | 5.0 | 0.05 | 0.00 | 0.00 | 89 | 1012.0 |
| 20260504020152 | 72 | 257 | 3.0 | 5.0 | 0.05 | 0.00 | 0.00 | 89 | 1012.0 |
| 20260504014252 | 73 | 257 | 3.0 | 5.0 | 0.04 | 0.00 | 0.00 | 89 | 1012.0 |
| 20260504014152 | 73 | 257 | 3.0 | 5.0 | 0.04 | 0.00 | 0.00 | 89 | 1012.0 |
| 20260504012251 | 71 | 280 | 3.0 | 4.0 | 0.04 | 0.00 | 0.00 | 89 | 1012.0 |
| 20260504012151 | 71 | 280 | 3.0 | 4.0 | 0.04 | 0.00 | 0.00 | 89 | 1012.0 |
| 20260504010251 | 72 | 280 | 3.0 | 4.0 | 0.04 | 0.00 | 0.00 | 89 | 1012.0 |
| 20260504010151 | 72 | 280 | 3.0 | 4.0 | 0.04 | 0.00 | 0.00 | 89 | 1012.0 |
| 20260504004250 | 73 | 280 | 3.0 | 4.0 | 0.01 | 0.00 | 0.00 | 89 | 1012.0 |
| 20260504004150 | 73 | 280 | 3.0 | 4.0 | 0.01 | 0.00 | 0.00 | 89 | 1012.0 |
| 20260504002250 | 74 | 280 | 3.0 | 4.0 | 0.00 | 0.00 | 0.00 | 89 | 1011.0 |
| 20260504002150 | 74 | 280 | 3.0 | 4.0 | 0.00 | 0.00 | 0.00 | 89 | 1011.0 |
| 20260504000249 | 75 | 280 | 3.0 | 4.0 | 0.01 | 0.00 | 0.00 | 89 | 1011.0 |
| 20260504000149 | 75 | 280 | 3.0 | 4.0 | 0.01 | 0.00 | 0.00 | 89 | 1011.0 |
| 20260503234249 | 76 | 280 | 3.0 | 4.0 | 0.01 | 0.00 | 0.00 | 89 | 1011.0 |
| 20260503234148 | 76 | 280 | 3.0 | 4.0 | 0.01 | 0.00 | 0.00 | 89 | 1011.0 |
| 20260503232248 | 72 | 296 | 1.0 | 3.0 | 0.01 | 0.00 | 0.00 | 87 | 1010.0 |
| 20260503232148 | 72 | 296 | 1.0 | 3.0 | 0.01 | 0.00 | 0.00 | 87 | 1010.0 |
| 20260503230247 | 73 | 296 | 1.0 | 3.0 | 0.00 | 0.00 | 0.00 | 87 | 1010.0 |
| 20260503230147 | 73 | 296 | 1.0 | 3.0 | 0.00 | 0.00 | 0.00 | 87 | 1010.0 |
| 20260503224247 | 74 | 296 | 2.0 | 3.0 | 0.00 | 0.00 | 0.00 | 87 | 1010.0 |
| 20260503224147 | 74 | 296 | 2.0 | 3.0 | 0.00 | 0.00 | 0.00 | 87 | 1010.0 |
| 20260503222246 | 73 | 342 | 1.0 | 4.0 | 0.00 | 0.00 | 0.00 | 84 | 1010.0 |
| 20260503222147 | 73 | 342 | 1.0 | 4.0 | 0.00 | 0.00 | 0.00 | 84 | 1010.0 |
| 20260503220246 | 74 | 342 | 1.0 | 4.0 | 0.00 | 0.00 | 0.00 | 84 | 1010.0 |
| 20260503220146 | 74 | 342 | 1.0 | 4.0 | 0.00 | 0.00 | 0.00 | 84 | 1010.0 |
| 20260503214245 | 75 | 342 | 2.0 | 4.0 | 0.00 | 0.00 | 0.00 | 84 | 1010.0 |
| 20260503214145 | 75 | 342 | 2.0 | 4.0 | 0.00 | 0.00 | 0.00 | 84 | 1010.0 |
| 20260503212245 | 73 | 4 | 5.0 | 8.0 | 0.01 | 0.00 | 0.00 | 80 | 1010.0 |
| 20260503212145 | 73 | 4 | 5.0 | 8.0 | 0.01 | 0.00 | 0.00 | 80 | 1010.0 |
| 20260503210244 | 74 | 4 | 5.0 | 8.0 | 0.01 | 0.00 | 0.00 | 80 | 1010.0 |
| 20260503210144 | 74 | 4 | 5.0 | 8.0 | 0.01 | 0.00 | 0.00 | 80 | 1010.0 |
| 20260503204244 | 75 | 4 | 5.0 | 8.0 | 0.00 | 0.00 | 0.00 | 80 | 1010.0 |
| 20260503204144 | 75 | 4 | 5.0 | 8.0 | 0.00 | 0.00 | 0.00 | 80 | 1010.0 |
| 20260503202243 | 76 | 4 | 5.0 | 8.0 | 0.00 | 0.00 | 0.00 | 80 | 1011.0 |
| 20260503202143 | 76 | 4 | 5.0 | 8.0 | 0.00 | 0.00 | 0.00 | 80 | 1011.0 |
| 20260503200243 | 77 | 4 | 5.0 | 8.0 | 0.00 | 0.00 | 0.00 | 80 | 1011.0 |
| 20260503200143 | 77 | 4 | 5.0 | 8.0 | 0.00 | 0.00 | 0.00 | 80 | 1011.0 |
| 20260503194242 | 78 | 4 | 5.0 | 8.0 | 0.00 | 0.00 | 0.00 | 80 | 1011.0 |
| 20260503194142 | 78 | 4 | 5.0 | 8.0 | 0.00 | 0.00 | 0.00 | 80 | 1011.0 |
| 20260503192241 | 78 | 359 | 5.0 | 7.0 | 0.01 | 0.00 | 0.00 | 76 | 1011.0 |
| 20260503192140 | 78 | 359 | 5.0 | 7.0 | 0.01 | 0.00 | 0.00 | 76 | 1011.0 |
| 20260503190240 | 79 | 359 | 5.0 | 7.0 | 0.00 | 0.00 | 0.00 | 76 | 1011.0 |
| 20260503190140 | 79 | 359 | 5.0 | 7.0 | 0.00 | 0.00 | 0.00 | 76 | 1011.0 |
| 20260503184239 | 80 | 359 | 6.0 | 7.0 | 0.01 | 0.00 | 0.00 | 76 | 1011.0 |
| 20260503184139 | 80 | 359 | 6.0 | 7.0 | 0.01 | 0.00 | 0.00 | 76 | 1011.0 |
| 20260503182239 | 78 | 349 | 5.0 | 8.0 | 0.00 | 0.00 | 0.00 | 76 | 1012.0 |
| 20260503182139 | 78 | 349 | 5.0 | 8.0 | 0.00 | 0.00 | 0.00 | 76 | 1012.0 |
| 20260503180238 | 79 | 349 | 5.0 | 8.0 | 0.00 | 0.00 | 0.00 | 76 | 1012.0 |
| 20260503180138 | 79 | 349 | 5.0 | 8.0 | 0.00 | 0.00 | 0.00 | 76 | 1012.0 |
| 20260503174238 | 80 | 349 | 5.0 | 8.0 | 0.00 | 0.00 | 0.00 | 76 | 1012.0 |
| 20260503174138 | 80 | 349 | 5.0 | 8.0 | 0.00 | 0.00 | 0.00 | 76 | 1012.0 |
| 20260503172237 | 76 | 2 | 5.0 | 5.0 | 0.00 | 0.00 | 0.00 | 73 | 1013.0 |
| 20260503172137 | 76 | 2 | 5.0 | 5.0 | 0.00 | 0.00 | 0.00 | 73 | 1013.0 |
| 20260503170236 | 77 | 2 | 5.0 | 5.0 | 0.00 | 0.00 | 0.00 | 73 | 1013.0 |
| 20260503170136 | 77 | 2 | 5.0 | 5.0 | 0.00 | 0.00 | 0.00 | 73 | 1013.0 |
| 20260503160135 | 80 | 2 | 5.0 | 5.0 | 0.00 | 0.00 | 0.00 | 73 | 1013.0 |
| 20260503150233 | 79 | 338 | 3.0 | 5.0 | 0.00 | 0.00 | 0.00 | 76 | 1013.0 |
| 20260503150133 | 79 | 338 | 3.0 | 5.0 | 0.00 | 0.00 | 0.00 | 76 | 1013.0 |
| 20260503140231 | 75 | 317 | 1.0 | 3.0 | 0.00 | 0.00 | 0.00 | 82 | 1013.0 |
| 20260503140131 | 75 | 317 | 1.0 | 3.0 | 0.00 | 0.00 | 0.00 | 82 | 1013.0 |
| 20260503130229 | 73 | 254 | 1.0 | 4.0 | 0.00 | 0.00 | 0.00 | 86 | 1012.0 |
| 20260503130129 | 73 | 254 | 1.0 | 4.0 | 0.00 | 0.00 | 0.00 | 86 | 1012.0 |
| 20260503120127 | 72 | 233 | 3.0 | 3.0 | 0.00 | 0.00 | 0.00 | 88 | 1012.0 |